When you browse on this site, cookies collect data to enhance your experience and personalize the content and advertising you see.
Visit our Privacy Policy to learn more. By continuing to use the site, you agree to this use of cookies and data.
  • In Österreich
  • Länderverzeichnis
  • Für 7 Tage
  • Wassertemperatur
  • Wetterkarte
  • News
  • Widgets
  • user-avatar
    Anmelden

    Stündliche Wetter Molango

    Heute, 19 August, Montag

    Zeit Temperatur Niederschläge Wind Luftdruck Luftfeuchtigkeit
    00:00 +14°C° 0.2 mm 0 m/S 610 mmHg 96%
    01:00 +14°C° 0.2 mm 0 m/S 610 mmHg 95%
    02:00 +14°C° 0.2 mm 0 m/S 609 mmHg 95%
    03:00 +14°C° 0.3 mm 0 m/S 609 mmHg 95%
    04:00 +14°C° 0.3 mm 0 m/S 610 mmHg 95%
    05:00 +14°C° 0.3 mm 0 m/S 610 mmHg 95%
    06:00 +15°C° 0.1 mm 0 m/S 610 mmHg 89%
    07:00 +19°C° 0.1 mm 1 m/S 611 mmHg 84%
    08:00 +20°C° 0.1 mm 1 m/S 612 mmHg 78%
    09:00 +21°C° 0.2 mm 1 m/S 612 mmHg 75%
    10:00 +21°C° 0.2 mm 2 m/S 612 mmHg 72%
    11:00 +22°C° 0.2 mm 3 m/S 613 mmHg 69%
    12:00 +21°C° 1 mm 3 m/S 612 mmHg 71%
    13:00 +21°C° 1 mm 3 m/S 611 mmHg 73%
    14:00 +21°C° 1 mm 3 m/S 611 mmHg 75%
    15:00 +20°C° 0.7 mm 2 m/S 610 mmHg 79%
    16:00 +19°C° 0.7 mm 2 m/S 610 mmHg 83%
    17:00 +19°C° 0.7 mm 1 m/S 610 mmHg 87%
    18:00 +18°C° 0.2 mm 1 m/S 610 mmHg 90%
    19:00 +16°C° 0.2 mm 1 m/S 610 mmHg 92%
    20:00 +15°C° 0.2 mm 1 m/S 610 mmHg 95%
    21:00 +15°C° 0 mm 1 m/S 610 mmHg 96%
    22:00 +14°C° 0 mm 1 m/S 610 mmHg 96%
    23:00 +13°C° 0 mm 0 m/S 610 mmHg 96%

    Morgen, 20 August, Dienstag

    Zeit Temperatur Niederschläge Wind Luftdruck Luftfeuchtigkeit
    00:00 +14°C° 0 mm 1 m/S 610 mmHg 96%
    01:00 +14°C° 0 mm 1 m/S 610 mmHg 95%
    02:00 +14°C° 0 mm 1 m/S 610 mmHg 95%
    03:00 +13°C° 0 mm 1 m/S 610 mmHg 95%
    04:00 +13°C° 0 mm 1 m/S 610 mmHg 94%
    05:00 +12°C° 0 mm 1 m/S 610 mmHg 94%
    06:00 +14°C° 0 mm 1 m/S 611 mmHg 87%
    07:00 +16°C° 0 mm 1 m/S 612 mmHg 80%
    08:00 +19°C° 0 mm 1 m/S 613 mmHg 73%
    09:00 +20°C° 0 mm 1 m/S 613 mmHg 69%
    10:00 +20°C° 0 mm 2 m/S 613 mmHg 65%
    11:00 +21°C° 0 mm 3 m/S 613 mmHg 61%
    12:00 +21°C° 0.3 mm 3 m/S 612 mmHg 63%
    13:00 +21°C° 0.3 mm 3 m/S 612 mmHg 66%
    14:00 +21°C° 0.3 mm 3 m/S 611 mmHg 68%
    15:00 +20°C° 0.5 mm 2 m/S 611 mmHg 74%
    16:00 +19°C° 0.5 mm 2 m/S 611 mmHg 80%
    17:00 +19°C° 0.5 mm 1 m/S 610 mmHg 86%
    18:00 +18°C° 0.3 mm 1 m/S 611 mmHg 89%
    19:00 +16°C° 0.3 mm 1 m/S 611 mmHg 91%
    20:00 +15°C° 0.3 mm 1 m/S 611 mmHg 94%
    21:00 +15°C° 0.1 mm 1 m/S 611 mmHg 94%
    22:00 +14°C° 0.1 mm 1 m/S 611 mmHg 95%
    23:00 +14°C° 0.1 mm 1 m/S 611 mmHg 95%

    übermorgen, 21 August, Mittwoch

    Zeit Temperatur Niederschläge Wind Luftdruck Luftfeuchtigkeit
    00:00 +14°C° 0 mm 1 m/S 610 mmHg 95%
    01:00 +13°C° 0 mm 1 m/S 610 mmHg 95%
    02:00 +13°C° 0 mm 1 m/S 610 mmHg 94%
    03:00 +13°C° 0 mm 1 m/S 610 mmHg 94%
    04:00 +13°C° 0 mm 1 m/S 610 mmHg 94%
    05:00 +13°C° 0 mm 1 m/S 610 mmHg 94%
    06:00 +14°C° 0 mm 0 m/S 611 mmHg 88%
    07:00 +16°C° 0 mm 0 m/S 612 mmHg 81%
    08:00 +18°C° 0 mm 0 m/S 613 mmHg 75%
    09:00 +21°C° 0.2 mm 1 m/S 613 mmHg 72%
    10:00 +21°C° 0.2 mm 1 m/S 613 mmHg 69%
    11:00 +21°C° 0.2 mm 2 m/S 613 mmHg 67%
    12:00 +21°C° 1.3 mm 2 m/S 612 mmHg 71%
    13:00 +20°C° 1.3 mm 2 m/S 611 mmHg 75%
    14:00 +20°C° 1.3 mm 2 m/S 611 mmHg 79%
    15:00 +19°C° 1.1 mm 2 m/S 610 mmHg 81%
    16:00 +20°C° 1.1 mm 1 m/S 610 mmHg 83%
    17:00 +19°C° 1.1 mm 1 m/S 610 mmHg 86%
    18:00 +18°C° 0.9 mm 1 m/S 610 mmHg 89%
    19:00 +16°C° 0.9 mm 1 m/S 610 mmHg 92%
    20:00 +15°C° 0.9 mm 1 m/S 610 mmHg 94%
    21:00 +15°C° 0.3 mm 1 m/S 610 mmHg 94%
    22:00 +15°C° 0.3 mm 1 m/S 610 mmHg 94%
    23:00 +15°C° 0.3 mm 1 m/S 610 mmHg 93%

    22 August, Donnerstag

    Zeit Temperatur Niederschläge Wind Luftdruck Luftfeuchtigkeit
    00:00 +14°C° 0 mm 1 m/S 610 mmHg 93%
    01:00 +14°C° 0 mm 1 m/S 609 mmHg 93%
    02:00 +14°C° 0 mm 1 m/S 608 mmHg 93%
    03:00 +14°C° 0 mm 1 m/S 609 mmHg 92%
    04:00 +14°C° 0 mm 1 m/S 609 mmHg 92%
    05:00 +13°C° 0 mm 1 m/S 609 mmHg 92%
    06:00 +15°C° 0 mm 0 m/S 610 mmHg 84%
    07:00 +17°C° 0 mm 0 m/S 611 mmHg 77%
    08:00 +19°C° 0 mm 0 m/S 612 mmHg 69%
    09:00 +22°C° 0.1 mm 1 m/S 612 mmHg 65%
    10:00 +23°C° 0.1 mm 1 m/S 613 mmHg 61%
    11:00 +25°C° 0.1 mm 2 m/S 613 mmHg 57%
    12:00 +24°C° 1 mm 2 m/S 612 mmHg 64%
    13:00 +23°C° 1 mm 2 m/S 611 mmHg 72%
    14:00 +21°C° 1 mm 2 m/S 610 mmHg 79%
    15:00 +20°C° 0.9 mm 2 m/S 610 mmHg 81%
    16:00 +21°C° 0.9 mm 1 m/S 609 mmHg 84%
    17:00 +20°C° 0.9 mm 1 m/S 609 mmHg 87%
    18:00 +19°C° 0.2 mm 1 m/S 609 mmHg 90%
    19:00 +18°C° 0.2 mm 1 m/S 610 mmHg 92%
    20:00 +16°C° 0.2 mm 1 m/S 610 mmHg 95%
    21:00 +15°C° 0.1 mm 0 m/S 610 mmHg 94%
    22:00 +14°C° 0.1 mm 0 m/S 610 mmHg 94%
    23:00 +14°C° 0.1 mm 0 m/S 610 mmHg 94%

    23 August, Freitag

    Zeit Temperatur Niederschläge Wind Luftdruck Luftfeuchtigkeit
    00:00 +14°C° 0 mm 0 m/S 610 mmHg 93%
    01:00 +15°C° 0 mm 1 m/S 609 mmHg 92%
    02:00 +15°C° 0 mm 1 m/S 609 mmHg 92%
    03:00 +15°C° 0 mm 1 m/S 609 mmHg 91%
    04:00 +15°C° 0 mm 1 m/S 609 mmHg 91%
    05:00 +15°C° 0 mm 1 m/S 610 mmHg 90%
    06:00 +16°C° 0 mm 1 m/S 611 mmHg 83%
    07:00 +19°C° 0 mm 1 m/S 612 mmHg 76%
    08:00 +21°C° 0 mm 1 m/S 613 mmHg 70%
    09:00 +23°C° 0.1 mm 1 m/S 613 mmHg 67%
    10:00 +24°C° 0.1 mm 1 m/S 613 mmHg 63%
    11:00 +25°C° 0.1 mm 1 m/S 613 mmHg 60%
    12:00 +24°C° 1.5 mm 1 m/S 612 mmHg 68%
    13:00 +23°C° 1.5 mm 2 m/S 611 mmHg 76%
    14:00 +20°C° 1.5 mm 2 m/S 610 mmHg 84%
    15:00 +19°C° 2.4 mm 2 m/S 610 mmHg 87%
    16:00 +19°C° 2.4 mm 1 m/S 610 mmHg 91%
    17:00 +18°C° 2.4 mm 1 m/S 609 mmHg 94%
    18:00 +18°C° 0.6 mm 1 m/S 610 mmHg 93%
    19:00 +18°C° 0.6 mm 1 m/S 610 mmHg 92%
    20:00 +16°C° 0.6 mm 1 m/S 611 mmHg 91%
    21:00 +16°C° 0.2 mm 1 m/S 611 mmHg 90%
    22:00 +16°C° 0.2 mm 1 m/S 611 mmHg 90%
    23:00 +16°C° 0.2 mm 1 m/S 611 mmHg 89%

    24 August, Samstag

    Zeit Temperatur Niederschläge Wind Luftdruck Luftfeuchtigkeit
    00:00 +15°C° 0.2 mm 1 m/S 611 mmHg 88%
    01:00 +15°C° 0.2 mm 1 m/S 611 mmHg 88%
    02:00 +15°C° 0.2 mm 2 m/S 610 mmHg 87%
    03:00 +15°C° 0 mm 1 m/S 610 mmHg 86%
    04:00 +15°C° 0 mm 1 m/S 610 mmHg 86%
    05:00 +15°C° 0 mm 1 m/S 610 mmHg 85%
    06:00 +16°C° 0 mm 1 m/S 611 mmHg 79%
    07:00 +17°C° 0 mm 0 m/S 612 mmHg 73%
    08:00 +19°C° 0 mm 0 m/S 613 mmHg 67%
    09:00 +22°C° 0.1 mm 1 m/S 614 mmHg 63%
    10:00 +24°C° 0.1 mm 1 m/S 614 mmHg 58%
    11:00 +25°C° 0.1 mm 1 m/S 614 mmHg 54%
    12:00 +25°C° 0.3 mm 2 m/S 614 mmHg 56%
    13:00 +25°C° 0.3 mm 2 m/S 613 mmHg 58%
    14:00 +25°C° 0.3 mm 2 m/S 613 mmHg 61%
    15:00 +24°C° 0.7 mm 2 m/S 612 mmHg 69%
    16:00 +23°C° 0.7 mm 1 m/S 612 mmHg 76%
    17:00 +22°C° 0.7 mm 1 m/S 611 mmHg 84%
    18:00 +21°C° 0.6 mm 1 m/S 611 mmHg 87%
    19:00 +20°C° 0.6 mm 1 m/S 611 mmHg 90%
    20:00 +17°C° 0.6 mm 0 m/S 611 mmHg 92%
    21:00 +16°C° 0.3 mm 0 m/S 611 mmHg 92%
    22:00 +16°C° 0.3 mm 0 m/S 611 mmHg 92%
    23:00 +15°C° 0.3 mm 0 m/S 611 mmHg 92%
    Mehr zeigen